SL-8 DEB

Satellite information

Favourite Embed

Satellite Type and Status

DEBRISIN ORBIT

Key statistics

Satellite SL-8 DEB at a glance.

Uptime

19532

Days in orbit

Revolutions

≈ 15.0

Per day

Orbit

LEO

Low Earth Orbit

Inclination

74.1

Latest

Satellite identification and parameters

Extended collection of information and parameters for SL-8 DEB.

Object identification

Identified? True

Debris? True

Object name: SL-8 DEB

International designator: 1972-043D

Object number (NORAD): 6065

Object ID (CCSDS): 6065

Country: COMMONWEALTH OF INDEPENDENT STATES (CIS)

Current information (Y/N): Y

RCS size: SMALL

Orbital parameters

Period: 96.071 minutes

Inclination: 74.0588 deg

SMA: 6948.451 km

Apoapsis: 576.315 km

Periapsis: 564.317 km

RAAN: 205.4393 deg

Eccentricy: 0.00086336

Argument of periapsis: 301.149 deg

Mean anomaly: 58.8849 deg

Mean motion: 14.98893576 rev/day

Mean motion (dot): 0.00012308 rev/day2

B* drag term: 0.0010190279 1/REarth

Two-line elements (TLE)

Creation date: Dec. 14, 2025, 3:07 a.m.

Reference frame: TEME

Reference center: EARTH

Epoch: Dec. 13, 2025, 4:25 p.m. UTC

TLE line 0: 0 SL-8 DEB

TLE line 1: 1 06065U 72043D 25347.68462038 .00012308 00000-0 10190-2 0 9998

TLE line 2: 2 06065 74.0588 205.4393 0008634 301.1490 58.8849 14.98893576830021

Live tracking on map

Real-time ground track for satellite SL-8 DEB.

In-orbit conjunctions

A list of the most updated potential collisions computed for object SL-8 DEB.

Target Orbit TCA Probability of collision Miss distance Type
OBJECT B SSO 2024-12-05 20:14:15 0.0001035733 835.0 (m) UNKNOWN
CZ-6 R/B LEO 2024-09-16 18:38:24 0.0006205276 291.0 (m) ROCKET BODY

Associated space launch

The soviet Zenit-4M (Rotor, 11F691) was an improved version of the Zenit-4 high resolution reconnaissance satellite and was part of the Vostok-based Zenit-family.

SL-8 DEB was lifted into orbit during the mission ‘Voskhod | Zenit-4M 37’, on board a Voskhod space rocket.

The launch took place on June 23, 1972, 11:19 a.m. from 43/3 (43L).

For more information about the launch, click the button.

Launch to space Voskhod | Zenit-4M 37
Voskhod | Zenit-4M 37

Agency: N/A

Status: Launch Successful

Launch date: June 23, 1972, 11:19 a.m. UTC

Rocket: Voskhod

Launch pad: 43/3 (43L)

Location: Plesetsk Cosmodrome, Russian Federation

...

Latest news about this satellite

There are no fresh news available about this satellite. Check back as we update our databases every day.


Newsletter sign-up

Weekly statistics, charts and insights to help you stay on top of the space industry.